Time,TemperatureF,DewpointF,PressureIn,WindDirection,WindDirectionDegrees,WindSpeedMPH,WindSpeedGustMPH,Humidity,HourlyPrecipIn,Conditions,Clouds,dailyrainin,SoftwareType,DateUTC
2013-01-13 00:00:00,71.4,63.0,29.55,East,90,0.0,0.0,75,0.00,,,0.00,WUHU21623XXSP,2013-01-13 05:00:00,
2013-01-13 00:01:00,71.4,63.0,29.55,East,90,0.0,0.0,75,0.00,,,0.00,WUHU21623XXSP,2013-01-13 05:01:00,
2013-01-13 00:03:00,71.4,62.7,29.55,SE,135,0.0,0.0,74,0.00,,,0.00,WUHU21623XXSP,2013-01-13 05:03:00,
2013-01-13 00:08:00,71.4,62.3,29.55,SE,135,0.0,0.0,73,0.00,,,0.00,WUHU21623XXSP,2013-01-13 05:08:00,
2013-01-13 00:13:00,71.8,62.7,29.55,SE,135,0.0,0.0,73,0.00,,,0.00,WUHU21623XXSP,2013-01-13 05:13:00,
2013-01-13 00:18:00,71.6,62.5,29.54,ESE,112,0.0,0.0,73,0.00,,,0.00,WUHU21623XXSP,2013-01-13 05:18:00,
2013-01-13 00:23:00,71.6,62.5,29.54,ENE,67,0.0,0.0,73,0.00,,,0.00,WUHU21623XXSP,2013-01-13 05:23:00,
2013-01-13 00:28:00,71.6,62.5,29.54,East,90,0.0,0.0,73,0.00,,,0.00,WUHU21623XXSP,2013-01-13 05:28:00,
2013-01-13 00:33:00,71.8,62.7,29.54,ESE,112,0.0,0.0,73,0.00,,,0.00,WUHU21623XXSP,2013-01-13 05:33:00,
2013-01-13 00:38:00,71.8,63.0,29.54,ENE,67,0.0,0.0,74,0.00,,,0.00,WUHU21623XXSP,2013-01-13 05:38:00,
2013-01-13 00:43:00,71.8,63.4,29.54,SE,135,0.0,0.0,75,0.00,,,0.00,WUHU21623XXSP,2013-01-13 05:43:00,
2013-01-13 00:48:00,72.1,64.1,29.54,East,90,0.0,0.0,76,0.00,,,0.00,WUHU21623XXSP,2013-01-13 05:48:00,
2013-01-13 00:53:00,72.3,64.7,29.54,East,90,0.0,0.0,77,0.00,,,0.00,WUHU21623XXSP,2013-01-13 05:53:00,
2013-01-13 00:58:00,72.1,64.9,29.54,East,90,0.0,0.0,78,0.00,,,0.00,WUHU21623XXSP,2013-01-13 05:58:00,
2013-01-13 01:03:00,72.1,65.3,29.54,SE,135,0.0,0.0,79,0.00,,,0.00,WUHU21623XXSP,2013-01-13 06:03:00,
2013-01-13 01:08:00,72.0,65.5,29.54,SE,135,0.0,0.0,80,0.00,,,0.00,WUHU21623XXSP,2013-01-13 06:08:00,
2013-01-13 01:13:00,71.8,65.3,29.54,ESE,112,0.0,0.0,80,0.00,,,0.00,WUHU21623XXSP,2013-01-13 06:13:00,
2013-01-13 01:18:00,71.8,65.6,29.54,SE,135,0.0,0.0,81,0.00,,,0.00,WUHU21623XXSP,2013-01-13 06:18:00,
2013-01-13 01:23:00,71.8,65.6,29.54,SE,135,0.0,0.0,81,0.00,,,0.00,WUHU21623XXSP,2013-01-13 06:23:00,
2013-01-13 01:28:00,71.8,65.6,29.54,South,180,0.0,0.0,81,0.00,,,0.00,WUHU21623XXSP,2013-01-13 06:28:00,
2013-01-13 01:33:00,71.8,65.3,29.54,SSE,157,0.0,0.0,80,0.00,,,0.00,WUHU21623XXSP,2013-01-13 06:33:00,
2013-01-13 01:38:00,71.8,65.3,29.53,SE,135,0.0,0.0,80,0.00,,,0.00,WUHU21623XXSP,2013-01-13 06:38:00,
2013-01-13 01:43:00,71.8,65.6,29.53,SSE,157,0.0,0.0,81,0.00,,,0.00,WUHU21623XXSP,2013-01-13 06:43:00,
2013-01-13 01:48:00,71.8,65.6,29.53,SSE,157,0.0,0.0,81,0.00,,,0.00,WUHU21623XXSP,2013-01-13 06:48:00,
2013-01-13 01:53:00,71.8,65.3,29.53,ESE,112,0.0,0.0,80,0.00,,,0.00,WUHU21623XXSP,2013-01-13 06:53:00,
2013-01-13 01:58:00,71.8,65.3,29.54,ENE,67,0.0,0.0,80,0.00,,,0.00,WUHU21623XXSP,2013-01-13 06:58:00,
2013-01-13 02:03:00,72.1,65.3,29.53,South,180,0.0,0.0,79,0.00,,,0.00,WUHU21623XXSP,2013-01-13 07:03:00,
2013-01-13 02:08:00,72.1,65.3,29.53,SE,135,0.0,0.0,79,0.00,,,0.00,WUHU21623XXSP,2013-01-13 07:08:00,
2013-01-13 02:13:00,72.1,65.3,29.54,ESE,112,0.0,0.0,79,0.00,,,0.00,WUHU21623XXSP,2013-01-13 07:13:00,
2013-01-13 02:18:00,72.0,64.7,29.54,SSE,157,0.0,0.0,78,0.00,,,0.00,WUHU21623XXSP,2013-01-13 07:18:00,
2013-01-13 02:23:00,72.0,64.7,29.54,SE,135,0.0,0.0,78,0.00,,,0.00,WUHU21623XXSP,2013-01-13 07:23:00,
2013-01-13 02:28:00,71.8,64.9,29.53,SE,135,0.0,0.0,79,0.00,,,0.00,WUHU21623XXSP,2013-01-13 07:28:00,
2013-01-13 02:33:00,72.0,65.1,29.54,SE,135,0.0,0.0,79,0.00,,,0.00,WUHU21623XXSP,2013-01-13 07:33:00,
2013-01-13 02:38:00,72.1,65.3,29.54,SE,135,0.0,0.0,79,0.00,,,0.00,WUHU21623XXSP,2013-01-13 07:38:00,
2013-01-13 02:43:00,72.1,65.3,29.54,ESE,112,0.0,0.0,79,0.00,,,0.00,WUHU21623XXSP,2013-01-13 07:43:00,
2013-01-13 02:48:00,72.1,65.3,29.54,ESE,112,0.0,0.0,79,0.00,,,0.00,WUHU21623XXSP,2013-01-13 07:48:00,
2013-01-13 02:53:00,72.1,65.3,29.53,ESE,112,0.0,0.0,79,0.00,,,0.00,WUHU21623XXSP,2013-01-13 07:53:00,
2013-01-13 02:58:00,72.1,65.3,29.53,SE,135,0.0,0.0,79,0.00,,,0.00,WUHU21623XXSP,2013-01-13 07:58:00,
2013-01-13 03:03:00,72.1,64.9,29.53,SE,135,0.0,0.0,78,0.00,,,0.00,WUHU21623XXSP,2013-01-13 08:03:00,
2013-01-13 03:08:00,72.3,65.1,29.53,ESE,112,0.0,0.0,78,0.00,,,0.00,WUHU21623XXSP,2013-01-13 08:08:00,
2013-01-13 03:13:00,72.1,64.5,29.53,ESE,112,0.0,0.0,77,0.00,,,0.00,WUHU21623XXSP,2013-01-13 08:13:00,
2013-01-13 03:18:00,72.3,64.3,29.53,SE,135,0.0,0.0,76,0.00,,,0.00,WUHU21623XXSP,2013-01-13 08:18:00,
2013-01-13 03:23:00,72.3,64.3,29.52,SSE,157,0.0,0.0,76,0.00,,,0.00,WUHU21623XXSP,2013-01-13 08:23:00,
2013-01-13 03:28:00,72.3,64.0,29.52,SE,135,0.0,0.0,75,0.00,,,0.00,WUHU21623XXSP,2013-01-13 08:28:00,
2013-01-13 03:33:00,72.1,64.0,29.52,ESE,112,0.0,0.0,75,0.00,,,0.00,WUHU21623XXSP,2013-01-13 08:33:00,
2013-01-13 03:38:00,72.1,63.8,29.52,SE,135,0.0,0.0,75,0.00,,,0.00,WUHU21623XXSP,2013-01-13 08:38:00,
2013-01-13 03:43:00,72.1,63.8,29.52,SSE,157,0.0,0.0,75,0.00,,,0.00,WUHU21623XXSP,2013-01-13 08:43:00,
2013-01-13 03:48:00,72.0,63.6,29.52,ESE,112,0.0,0.0,75,0.00,,,0.00,WUHU21623XXSP,2013-01-13 08:48:00,
2013-01-13 03:53:00,72.0,63.6,29.52,SE,135,0.0,0.0,75,0.00,,,0.00,WUHU21623XXSP,2013-01-13 08:53:00,
2013-01-13 03:58:00,72.0,63.6,29.52,ESE,112,0.0,0.0,75,0.00,,,0.00,WUHU21623XXSP,2013-01-13 08:58:00,
2013-01-13 04:03:00,71.8,63.4,29.52,SE,135,0.0,0.0,75,0.00,,,0.00,WUHU21623XXSP,2013-01-13 09:03:00,
2013-01-13 04:08:00,71.8,63.0,29.52,SE,135,0.0,0.0,74,0.00,,,0.00,WUHU21623XXSP,2013-01-13 09:08:00,
2013-01-13 04:13:00,71.8,63.0,29.52,ESE,112,0.0,0.0,74,0.00,,,0.00,WUHU21623XXSP,2013-01-13 09:13:00,
2013-01-13 04:18:00,71.8,63.0,29.52,SE,135,0.0,0.0,74,0.00,,,0.00,WUHU21623XXSP,2013-01-13 09:18:00,
2013-01-13 04:23:00,71.8,63.0,29.53,SSE,157,0.0,0.0,74,0.00,,,0.00,WUHU21623XXSP,2013-01-13 09:23:00,
2013-01-13 04:28:00,71.8,62.7,29.53,SE,135,0.0,0.0,73,0.00,,,0.00,WUHU21623XXSP,2013-01-13 09:28:00,
2013-01-13 04:33:00,71.8,63.0,29.53,ESE,112,0.0,0.0,74,0.00,,,0.00,WUHU21623XXSP,2013-01-13 09:33:00,
2013-01-13 04:38:00,71.8,63.0,29.53,ESE,112,0.0,0.0,74,0.00,,,0.00,WUHU21623XXSP,2013-01-13 09:38:00,
2013-01-13 04:43:00,71.8,63.0,29.53,ESE,112,0.0,0.0,74,0.00,,,0.00,WUHU21623XXSP,2013-01-13 09:43:00,
2013-01-13 04:48:00,71.8,62.7,29.53,East,90,0.0,0.0,73,0.00,,,0.00,WUHU21623XXSP,2013-01-13 09:48:00,
2013-01-13 04:53:00,71.6,62.5,29.53,SSE,157,0.0,0.0,73,0.00,,,0.00,WUHU21623XXSP,2013-01-13 09:53:00,
2013-01-13 04:58:00,71.8,62.3,29.53,SE,135,0.0,0.0,72,0.00,,,0.00,WUHU21623XXSP,2013-01-13 09:58:00,
2013-01-13 05:03:00,71.4,61.9,29.53,SE,135,0.0,0.0,72,0.00,,,0.00,WUHU21623XXSP,2013-01-13 10:03:00,
2013-01-13 05:08:00,71.4,61.9,29.53,ESE,112,0.0,0.0,72,0.00,,,0.00,WUHU21623XXSP,2013-01-13 10:08:00,
2013-01-13 05:13:00,71.4,62.3,29.53,SSE,157,0.0,0.0,73,0.00,,,0.00,WUHU21623XXSP,2013-01-13 10:13:00,
2013-01-13 05:18:00,71.2,62.1,29.53,ESE,112,0.0,0.0,73,0.00,,,0.00,WUHU21623XXSP,2013-01-13 10:18:00,
2013-01-13 05:23:00,71.2,62.1,29.53,SSE,157,0.0,0.0,73,0.00,,,0.00,WUHU21623XXSP,2013-01-13 10:23:00,
2013-01-13 05:28:00,71.2,62.1,29.53,SE,135,0.0,0.0,73,0.00,,,0.00,WUHU21623XXSP,2013-01-13 10:28:00,
2013-01-13 05:33:00,71.2,62.1,29.53,ESE,112,0.0,0.0,73,0.00,,,0.00,WUHU21623XXSP,2013-01-13 10:33:00,
2013-01-13 05:38:00,71.1,61.9,29.53,SE,135,0.0,0.0,73,0.00,,,0.00,WUHU21623XXSP,2013-01-13 10:38:00,
2013-01-13 05:43:00,71.1,61.9,29.53,SE,135,0.0,0.0,73,0.00,,,0.00,WUHU21623XXSP,2013-01-13 10:43:00,
2013-01-13 05:48:00,71.1,61.9,29.53,SE,135,0.0,0.0,73,0.00,,,0.00,WUHU21623XXSP,2013-01-13 10:48:00,
2013-01-13 05:53:00,71.1,62.3,29.53,ESE,112,0.0,0.0,74,0.00,,,0.00,WUHU21623XXSP,2013-01-13 10:53:00,
2013-01-13 05:58:00,71.2,62.5,29.53,SE,135,0.0,0.0,74,0.00,,,0.00,WUHU21623XXSP,2013-01-13 10:58:00,
2013-01-13 06:03:00,71.2,62.5,29.53,SE,135,0.0,0.0,74,0.00,,,0.00,WUHU21623XXSP,2013-01-13 11:03:00,
2013-01-13 06:08:00,71.1,62.7,29.53,ESE,112,0.0,0.0,75,0.00,,,0.00,WUHU21623XXSP,2013-01-13 11:08:00,
2013-01-13 06:13:00,71.2,62.9,29.53,SE,135,0.0,0.0,75,0.00,,,0.00,WUHU21623XXSP,2013-01-13 11:13:00,
2013-01-13 06:18:00,70.9,62.5,29.53,SSE,157,0.0,0.0,75,0.00,,,0.00,WUHU21623XXSP,2013-01-13 11:18:00,
2013-01-13 06:23:00,70.9,62.5,29.53,SE,135,0.0,0.0,75,0.00,,,0.00,WUHU21623XXSP,2013-01-13 11:23:00,
2013-01-13 06:28:00,70.9,62.5,29.53,ESE,112,0.0,0.0,75,0.00,,,0.00,WUHU21623XXSP,2013-01-13 11:28:00,
2013-01-13 06:33:00,70.9,62.9,29.53,SE,135,0.0,0.0,76,0.00,,,0.00,WUHU21623XXSP,2013-01-13 11:33:00,
2013-01-13 06:38:00,70.9,62.9,29.53,ESE,112,0.0,0.0,76,0.00,,,0.00,WUHU21623XXSP,2013-01-13 11:38:00,
2013-01-13 06:43:00,70.9,62.9,29.53,ESE,112,0.0,0.0,76,0.00,,,0.00,WUHU21623XXSP,2013-01-13 11:43:00,
2013-01-13 06:48:00,70.9,62.9,29.53,SE,135,0.0,0.0,76,0.00,,,0.00,WUHU21623XXSP,2013-01-13 11:48:00,
2013-01-13 06:53:00,70.9,62.9,29.53,SSE,157,0.0,0.0,76,0.00,,,0.00,WUHU21623XXSP,2013-01-13 11:53:00,
2013-01-13 06:58:00,70.9,62.9,29.53,SE,135,0.0,0.0,76,0.00,,,0.00,WUHU21623XXSP,2013-01-13 11:58:00,
2013-01-13 07:03:00,70.9,62.9,29.53,SE,135,0.0,0.0,76,0.00,,,0.00,WUHU21623XXSP,2013-01-13 12:03:00,
2013-01-13 07:08:00,70.9,62.9,29.53,ESE,112,0.0,0.0,76,0.00,,,0.00,WUHU21623XXSP,2013-01-13 12:08:00,
2013-01-13 07:13:00,70.9,62.9,29.53,SE,135,0.0,0.0,76,0.00,,,0.00,WUHU21623XXSP,2013-01-13 12:13:00,
2013-01-13 07:18:00,71.1,63.1,29.53,SE,135,0.0,0.0,76,0.00,,,0.00,WUHU21623XXSP,2013-01-13 12:18:00,
2013-01-13 07:23:00,71.2,63.2,29.53,SE,135,0.0,0.0,76,0.00,,,0.00,WUHU21623XXSP,2013-01-13 12:23:00,
2013-01-13 07:28:00,71.2,63.2,29.53,ESE,112,0.0,0.0,76,0.00,,,0.00,WUHU21623XXSP,2013-01-13 12:28:00,
2013-01-13 07:33:00,71.2,63.2,29.53,SE,135,0.0,0.0,76,0.00,,,0.00,WUHU21623XXSP,2013-01-13 12:33:00,
2013-01-13 07:38:00,71.4,63.4,29.53,SE,135,0.0,0.0,76,0.00,,,0.00,WUHU21623XXSP,2013-01-13 12:38:00,
2013-01-13 07:43:00,71.4,63.4,29.53,ESE,112,0.0,0.0,76,0.00,,,0.00,WUHU21623XXSP,2013-01-13 12:43:00,
2013-01-13 07:48:00,71.6,63.6,29.53,SSE,157,0.0,0.0,76,0.00,,,0.00,WUHU21623XXSP,2013-01-13 12:48:00,
2013-01-13 07:53:00,71.8,64.2,29.53,ESE,112,0.0,0.0,77,0.00,,,0.00,WUHU21623XXSP,2013-01-13 12:53:00,
2013-01-13 07:58:00,71.8,64.2,29.53,ESE,112,0.0,0.0,77,0.00,,,0.00,WUHU21623XXSP,2013-01-13 12:58:00,
2013-01-13 08:03:00,72.0,64.3,29.53,SE,135,0.0,0.0,77,0.00,,,0.00,WUHU21623XXSP,2013-01-13 13:03:00,
2013-01-13 08:08:00,72.5,64.5,29.54,SSE,157,0.0,0.0,76,0.00,,,0.00,WUHU21623XXSP,2013-01-13 13:08:00,
2013-01-13 08:13:00,72.9,64.9,29.53,SE,135,0.0,0.0,76,0.00,,,0.00,WUHU21623XXSP,2013-01-13 13:13:00,
2013-01-13 08:18:00,73.0,65.0,29.54,SE,135,0.0,0.0,76,0.00,,,0.00,WUHU21623XXSP,2013-01-13 13:18:00,
2013-01-13 08:23:00,73.0,65.0,29.54,South,180,0.0,0.0,76,0.00,,,0.00,WUHU21623XXSP,2013-01-13 13:23:00,
2013-01-13 08:28:00,73.2,65.2,29.54,ESE,112,0.0,0.0,76,0.00,,,0.00,WUHU21623XXSP,2013-01-13 13:28:00,
2013-01-13 08:33:00,73.2,64.8,29.54,SSE,157,0.0,0.0,75,0.00,,,0.00,WUHU21623XXSP,2013-01-13 13:33:00,
2013-01-13 08:38:00,74.1,65.7,29.54,SE,135,0.0,0.0,75,0.00,,,0.00,WUHU21623XXSP,2013-01-13 13:38:00,
2013-01-13 08:43:00,74.3,65.5,29.54,SE,135,0.0,0.0,74,0.00,,,0.00,WUHU21623XXSP,2013-01-13 13:43:00,
2013-01-13 08:48:00,74.5,65.7,29.53,East,90,0.0,0.0,74,0.00,,,0.00,WUHU21623XXSP,2013-01-13 13:48:00,
2013-01-13 08:53:00,74.8,65.6,29.54,ESE,112,0.0,0.0,73,0.00,,,0.00,WUHU21623XXSP,2013-01-13 13:53:00,
2013-01-13 08:58:00,74.8,65.6,29.54,SE,135,0.0,0.0,73,0.00,,,0.00,WUHU21623XXSP,2013-01-13 13:58:00,
2013-01-13 09:03:00,74.5,65.3,29.54,SE,135,0.0,0.0,73,0.00,,,0.00,WUHU21623XXSP,2013-01-13 14:03:00,
2013-01-13 09:08:00,74.8,65.6,29.55,SE,135,0.0,0.0,73,0.00,,,0.00,WUHU21623XXSP,2013-01-13 14:08:00,
2013-01-13 09:13:00,74.8,65.2,29.55,South,180,0.0,0.0,72,0.00,,,0.00,WUHU21623XXSP,2013-01-13 14:13:00,
2013-01-13 09:18:00,75.6,65.9,29.55,SSE,157,0.0,0.0,72,0.00,,,0.00,WUHU21623XXSP,2013-01-13 14:18:00,
2013-01-13 09:23:00,76.1,66.0,29.55,ENE,67,0.0,0.0,71,0.00,,,0.00,WUHU21623XXSP,2013-01-13 14:23:00,
2013-01-13 09:28:00,76.8,67.1,29.55,South,180,0.0,0.0,72,0.00,,,0.00,WUHU21623XXSP,2013-01-13 14:28:00,
2013-01-13 09:33:00,76.6,66.6,29.55,ESE,112,0.0,0.0,71,0.00,,,0.00,WUHU21623XXSP,2013-01-13 14:33:00,
2013-01-13 09:38:00,76.3,66.6,29.55,SE,135,0.0,0.0,72,0.00,,,0.00,WUHU21623XXSP,2013-01-13 14:38:00,
2013-01-13 09:43:00,76.3,65.4,29.56,SSE,157,0.0,0.0,69,0.00,,,0.00,WUHU21623XXSP,2013-01-13 14:43:00,
2013-01-13 09:48:00,76.5,65.6,29.56,South,180,0.0,0.0,69,0.00,,,0.00,WUHU21623XXSP,2013-01-13 14:48:00,
2013-01-13 09:53:00,77.2,65.8,29.55,East,90,0.0,0.0,68,0.00,,,0.00,WUHU21623XXSP,2013-01-13 14:53:00,
2013-01-13 09:59:00,77.5,65.3,29.55,SSE,157,0.0,0.0,66,0.00,,,0.00,WUHU21623XXSP,2013-01-13 14:59:00,
2013-01-13 10:04:00,77.4,65.1,29.55,South,180,0.0,0.0,66,0.00,,,0.00,WUHU21623XXSP,2013-01-13 15:04:00,
2013-01-13 10:09:00,77.5,65.3,29.55,South,180,0.0,0.0,66,0.00,,,0.00,WUHU21623XXSP,2013-01-13 15:09:00,
2013-01-13 10:14:00,78.1,65.3,29.55,SE,135,0.0,0.0,65,0.00,,,0.00,WUHU21623XXSP,2013-01-13 15:14:00,
2013-01-13 10:19:00,78.1,65.8,29.55,SE,135,0.0,0.0,66,0.00,,,0.00,WUHU21623XXSP,2013-01-13 15:19:00,
2013-01-13 10:24:00,78.1,65.3,29.55,SE,135,0.0,0.0,65,0.00,,,0.00,WUHU21623XXSP,2013-01-13 15:24:00,
2013-01-13 10:29:00,78.3,65.5,29.55,SSW,202,0.0,0.0,65,0.00,,,0.00,WUHU21623XXSP,2013-01-13 15:29:00,
2013-01-13 10:34:00,78.4,65.2,29.55,SSE,157,0.0,0.0,64,0.00,,,0.00,WUHU21623XXSP,2013-01-13 15:34:00,
2013-01-13 10:39:00,78.6,65.8,29.55,SSE,157,0.0,0.0,65,0.00,,,0.00,WUHU21623XXSP,2013-01-13 15:39:00,
2013-01-13 10:44:00,78.6,65.4,29.55,South,180,0.0,0.0,64,0.00,,,0.00,WUHU21623XXSP,2013-01-13 15:44:00,
2013-01-13 10:49:00,79.3,66.1,29.55,SSE,157,0.0,0.0,64,0.00,,,0.00,WUHU21623XXSP,2013-01-13 15:49:00,
2013-01-13 10:54:00,79.5,66.3,29.55,SSE,157,0.0,0.0,64,0.00,,,0.00,WUHU21623XXSP,2013-01-13 15:54:00,
2013-01-13 10:59:00,79.7,66.0,29.55,SSE,157,0.0,0.0,63,0.00,,,0.00,WUHU21623XXSP,2013-01-13 15:59:00,
2013-01-13 11:04:00,79.7,65.6,29.55,SE,135,0.0,0.0,62,0.00,,,0.00,WUHU21623XXSP,2013-01-13 16:04:00,
2013-01-13 11:09:00,79.5,65.8,29.55,SSE,157,0.0,0.0,63,0.00,,,0.00,WUHU21623XXSP,2013-01-13 16:09:00,
2013-01-13 11:14:00,80.2,66.0,29.55,ESE,112,0.0,0.0,62,0.00,,,0.00,WUHU21623XXSP,2013-01-13 16:14:00,
2013-01-13 11:19:00,79.9,65.7,29.55,ESE,112,0.0,0.0,62,0.00,,,0.00,WUHU21623XXSP,2013-01-13 16:19:00,
2013-01-13 11:24:00,80.4,66.7,29.55,ESE,112,0.0,0.0,63,0.00,,,0.00,WUHU21623XXSP,2013-01-13 16:24:00,
2013-01-13 11:29:00,81.1,66.4,29.56,SSW,202,0.0,0.0,61,0.00,,,0.00,WUHU21623XXSP,2013-01-13 16:29:00,
2013-01-13 11:34:00,81.1,66.4,29.56,SE,135,0.0,0.0,61,0.00,,,0.00,WUHU21623XXSP,2013-01-13 16:34:00,
2013-01-13 11:39:00,81.1,66.0,29.56,NE,45,0.0,0.0,60,0.00,,,0.00,WUHU21623XXSP,2013-01-13 16:39:00,
2013-01-13 11:44:00,81.5,66.3,29.56,South,180,0.0,0.0,60,0.00,,,0.00,WUHU21623XXSP,2013-01-13 16:44:00,
2013-01-13 11:49:00,82.0,66.8,29.56,SSE,157,0.0,0.0,60,0.00,,,0.00,WUHU21623XXSP,2013-01-13 16:49:00,
2013-01-13 11:54:00,81.7,66.5,29.56,SE,135,0.0,0.0,60,0.00,,,0.00,WUHU21623XXSP,2013-01-13 16:54:00,
2013-01-13 11:59:00,82.0,66.8,29.56,SSE,157,0.0,0.0,60,0.00,,,0.00,WUHU21623XXSP,2013-01-13 16:59:00,
2013-01-13 12:04:00,82.0,66.3,29.56,SE,135,0.0,0.0,59,0.00,,,0.00,WUHU21623XXSP,2013-01-13 17:04:00,
2013-01-13 12:09:00,82.2,66.4,29.56,SSE,157,0.0,0.0,59,0.00,,,0.00,WUHU21623XXSP,2013-01-13 17:09:00,
2013-01-13 12:14:00,81.7,65.4,29.56,ESE,112,0.0,0.0,58,0.00,,,0.00,WUHU21623XXSP,2013-01-13 17:14:00,
2013-01-13 12:19:00,81.3,65.6,29.56,SE,135,0.0,0.0,59,0.00,,,0.00,WUHU21623XXSP,2013-01-13 17:19:00,
2013-01-13 12:24:00,82.0,65.7,29.56,ESE,112,0.0,0.0,58,0.00,,,0.00,WUHU21623XXSP,2013-01-13 17:24:00,
2013-01-13 12:28:00,81.1,64.9,29.56,SE,135,0.0,0.0,58,0.00,,,0.00,WUHU21623XXSP,2013-01-13 17:28:00,
2013-01-13 12:33:00,80.4,64.8,29.56,SSE,157,0.0,0.0,59,0.00,,,0.00,WUHU21623XXSP,2013-01-13 17:33:00,
2013-01-13 12:38:00,80.2,64.1,29.56,East,90,0.0,0.0,58,0.00,,,0.00,WUHU21623XXSP,2013-01-13 17:38:00,
2013-01-13 12:43:00,80.2,65.2,29.55,SE,135,0.0,0.0,60,0.00,,,0.00,WUHU21623XXSP,2013-01-13 17:43:00,
2013-01-13 12:48:00,80.4,64.8,29.55,SE,135,0.0,0.0,59,0.00,,,0.00,WUHU21623XXSP,2013-01-13 17:48:00,
2013-01-13 12:53:00,80.8,64.6,29.55,ESE,112,0.0,0.0,58,0.00,,,0.00,WUHU21623XXSP,2013-01-13 17:53:00,
2013-01-13 12:58:00,81.1,63.9,29.55,ESE,112,0.0,0.0,56,0.00,,,0.00,WUHU21623XXSP,2013-01-13 17:58:00,
2013-01-13 13:03:00,82.0,64.7,29.55,East,90,0.0,0.0,56,0.00,,,0.00,WUHU21623XXSP,2013-01-13 18:03:00,
2013-01-13 13:08:00,83.3,65.9,29.55,SSE,157,0.0,0.0,56,0.00,,,0.00,WUHU21623XXSP,2013-01-13 18:08:00,
2013-01-13 13:13:00,80.8,64.6,29.55,SE,135,0.0,0.0,58,0.00,,,0.00,WUHU21623XXSP,2013-01-13 18:13:00,
2013-01-13 13:18:00,80.2,64.1,29.55,SE,135,0.0,0.0,58,0.00,,,0.00,WUHU21623XXSP,2013-01-13 18:18:00,
2013-01-13 13:23:00,80.8,64.6,29.55,SE,135,0.0,0.0,58,0.00,,,0.00,WUHU21623XXSP,2013-01-13 18:23:00,
2013-01-13 13:28:00,80.8,64.1,29.55,SE,135,0.0,0.0,57,0.00,,,0.00,WUHU21623XXSP,2013-01-13 18:28:00,
2013-01-13 13:33:00,82.6,65.7,29.55,South,180,0.0,0.0,57,0.00,,,0.00,WUHU21623XXSP,2013-01-13 18:33:00,
2013-01-13 13:38:00,82.9,65.0,29.55,SE,135,0.0,0.0,55,0.00,,,0.00,WUHU21623XXSP,2013-01-13 18:38:00,
2013-01-13 13:43:00,82.2,64.3,29.55,SE,135,0.0,0.0,55,0.00,,,0.00,WUHU21623XXSP,2013-01-13 18:43:00,
2013-01-13 13:48:00,82.6,65.0,29.55,SE,135,0.0,0.0,54,0.00,,,0.00,WUHU21623XXSP,2013-01-13 18:48:00,
2013-01-13 13:53:00,82.8,64.8,29.55,SE,135,0.0,0.0,55,0.00,,,0.00,WUHU21623XXSP,2013-01-13 18:53:00,
2013-01-13 13:58:00,83.3,65.9,29.54,SSE,157,0.0,0.0,56,0.00,,,0.00,WUHU21623XXSP,2013-01-13 18:58:00,
2013-01-13 14:03:00,82.4,64.5,29.55,ESE,112,0.0,0.0,55,0.00,,,0.00,WUHU21623XXSP,2013-01-13 19:03:00,
2013-01-13 14:08:00,83.1,65.2,29.54,South,180,0.0,0.0,55,0.00,,,0.00,WUHU21623XXSP,2013-01-13 19:08:00,
2013-01-13 14:13:00,83.1,64.7,29.54,SSE,157,0.0,0.0,54,0.00,,,0.00,WUHU21623XXSP,2013-01-13 19:13:00,
2013-01-13 14:18:00,82.4,64.5,29.55,SSE,157,0.0,0.0,55,0.00,,,0.00,WUHU21623XXSP,2013-01-13 19:18:00,
2013-01-13 14:23:00,82.0,64.2,29.55,SSE,157,0.0,0.0,55,0.00,,,0.00,WUHU21623XXSP,2013-01-13 19:23:00,
2013-01-13 14:28:00,82.2,64.3,29.55,SE,135,0.0,0.0,55,0.00,,,0.00,WUHU21623XXSP,2013-01-13 19:28:00,
2013-01-13 14:33:00,82.6,65.2,29.54,ESE,112,0.0,0.0,56,0.00,,,0.00,WUHU21623XXSP,2013-01-13 19:33:00,
2013-01-13 14:38:00,82.2,64.3,29.54,SE,135,0.0,0.0,55,0.00,,,0.00,WUHU21623XXSP,2013-01-13 19:38:00,
2013-01-13 14:43:00,82.8,64.8,29.54,SSW,202,0.0,0.0,55,0.00,,,0.00,WUHU21623XXSP,2013-01-13 19:43:00,
2013-01-13 14:48:00,82.9,64.5,29.54,SE,135,0.0,0.0,54,0.00,,,0.00,WUHU21623XXSP,2013-01-13 19:48:00,
2013-01-13 14:53:00,82.2,64.1,29.54,SE,135,0.0,0.0,54,0.00,,,0.00,WUHU21623XXSP,2013-01-13 19:53:00,
2013-01-13 14:58:00,82.0,63.6,29.54,ENE,67,0.0,0.0,54,0.00,,,0.00,WUHU21623XXSP,2013-01-13 19:58:00,
2013-01-13 15:03:00,82.0,64.2,29.54,SSE,157,0.0,0.0,55,0.00,,,0.00,WUHU21623XXSP,2013-01-13 20:03:00,
2013-01-13 15:08:00,81.1,63.4,29.54,ESE,112,0.0,0.0,55,0.00,,,0.00,WUHU21623XXSP,2013-01-13 20:08:00,
2013-01-13 15:13:00,81.3,64.0,29.55,East,90,0.0,0.0,56,0.00,,,0.00,WUHU21623XXSP,2013-01-13 20:13:00,
2013-01-13 15:18:00,81.7,63.8,29.54,SE,135,0.0,0.0,55,0.00,,,0.00,WUHU21623XXSP,2013-01-13 20:18:00,
2013-01-13 15:23:00,81.3,64.0,29.54,SSE,157,0.0,0.0,56,0.00,,,0.00,WUHU21623XXSP,2013-01-13 20:23:00,
2013-01-13 15:28:00,80.8,63.6,29.54,ENE,67,0.0,0.0,56,0.00,,,0.00,WUHU21623XXSP,2013-01-13 20:28:00,
2013-01-13 15:34:00,80.8,64.1,29.55,SE,135,0.0,0.0,57,0.00,,,0.00,WUHU21623XXSP,2013-01-13 20:34:00,
2013-01-13 15:38:00,81.0,64.2,29.55,SE,135,0.0,0.0,57,0.00,,,0.00,WUHU21623XXSP,2013-01-13 20:38:00,
2013-01-13 15:43:00,80.2,63.6,29.55,SE,135,0.0,0.0,57,0.00,,,0.00,WUHU21623XXSP,2013-01-13 20:43:00,
2013-01-13 15:48:00,80.2,63.6,29.55,SE,135,0.0,0.0,57,0.00,,,0.00,WUHU21623XXSP,2013-01-13 20:48:00,
2013-01-13 15:53:00,80.4,63.8,29.55,ESE,112,0.0,0.0,57,0.00,,,0.00,WUHU21623XXSP,2013-01-13 20:53:00,
2013-01-13 15:58:00,80.4,64.3,29.55,SE,135,0.0,0.0,58,0.00,,,0.00,WUHU21623XXSP,2013-01-13 20:58:00,
2013-01-13 16:03:00,80.4,63.8,29.55,East,90,0.0,0.0,57,0.00,,,0.00,WUHU21623XXSP,2013-01-13 21:03:00,
2013-01-13 16:08:00,80.4,63.8,29.56,SE,135,0.0,0.0,57,0.00,,,0.00,WUHU21623XXSP,2013-01-13 21:08:00,
2013-01-13 16:13:00,80.4,64.3,29.56,SE,135,0.0,0.0,58,0.00,,,0.00,WUHU21623XXSP,2013-01-13 21:13:00,
2013-01-13 16:18:00,80.4,64.3,29.56,South,180,0.0,0.0,58,0.00,,,0.00,WUHU21623XXSP,2013-01-13 21:18:00,
2013-01-13 16:23:00,80.8,64.6,29.56,SSE,157,0.0,0.0,58,0.00,,,0.00,WUHU21623XXSP,2013-01-13 21:23:00,
2013-01-13 16:28:00,80.4,64.8,29.56,ESE,112,0.0,0.0,59,0.00,,,0.00,WUHU21623XXSP,2013-01-13 21:28:00,
2013-01-13 16:34:00,79.5,64.5,29.56,SSE,157,0.0,0.0,60,0.00,,,0.00,WUHU21623XXSP,2013-01-13 21:34:00,
2013-01-13 16:39:00,79.2,64.6,29.56,SE,135,0.0,0.0,61,0.00,,,0.00,WUHU21623XXSP,2013-01-13 21:39:00,
2013-01-13 16:44:00,78.6,64.5,29.57,SE,135,0.0,0.0,62,0.00,,,0.00,WUHU21623XXSP,2013-01-13 21:44:00,
2013-01-13 16:49:00,78.4,64.4,29.57,ESE,112,0.0,0.0,62,0.00,,,0.00,WUHU21623XXSP,2013-01-13 21:49:00,
2013-01-13 16:54:00,77.5,63.9,29.57,ESE,112,0.0,0.0,63,0.00,,,0.00,WUHU21623XXSP,2013-01-13 21:54:00,
2013-01-13 16:59:00,77.2,63.6,29.57,ESE,112,0.0,0.0,63,0.00,,,0.00,WUHU21623XXSP,2013-01-13 21:59:00,
2013-01-13 17:04:00,76.8,63.2,29.57,SSE,157,0.0,0.0,63,0.00,,,0.00,WUHU21623XXSP,2013-01-13 22:04:00,
2013-01-13 17:09:00,76.6,63.5,29.57,SE,135,0.0,0.0,64,0.00,,,0.00,WUHU21623XXSP,2013-01-13 22:09:00,
2013-01-13 17:14:00,76.3,63.2,29.57,SE,135,0.0,0.0,64,0.00,,,0.00,WUHU21623XXSP,2013-01-13 22:14:00,
2013-01-13 17:19:00,76.1,63.4,29.57,ESE,112,0.0,0.0,65,0.00,,,0.00,WUHU21623XXSP,2013-01-13 22:19:00,
2013-01-13 17:24:00,75.9,63.3,29.57,SSE,157,0.0,0.0,65,0.00,,,0.00,WUHU21623XXSP,2013-01-13 22:24:00,
2013-01-13 17:29:00,75.7,63.5,29.56,SSE,157,0.0,0.0,66,0.00,,,0.00,WUHU21623XXSP,2013-01-13 22:29:00,
2013-01-13 17:34:00,75.7,63.5,29.57,SE,135,0.0,0.0,66,0.00,,,0.00,WUHU21623XXSP,2013-01-13 22:34:00,
2013-01-13 17:39:00,75.6,63.4,29.57,East,90,0.0,0.0,66,0.00,,,0.00,WUHU21623XXSP,2013-01-13 22:39:00,
2013-01-13 17:44:00,75.4,63.2,29.57,SE,135,0.0,0.0,66,0.00,,,0.00,WUHU21623XXSP,2013-01-13 22:44:00,
2013-01-13 17:49:00,75.0,62.9,29.57,SE,135,0.0,0.0,66,0.00,,,0.00,WUHU21623XXSP,2013-01-13 22:49:00,
2013-01-13 17:54:00,75.0,62.9,29.57,SE,135,0.0,0.0,66,0.00,,,0.00,WUHU21623XXSP,2013-01-13 22:54:00,
2013-01-13 17:59:00,74.8,63.1,29.57,SE,135,0.0,0.0,67,0.00,,,0.00,WUHU21623XXSP,2013-01-13 22:59:00,
2013-01-13 18:04:00,74.8,63.1,29.58,SE,135,0.0,0.0,67,0.00,,,0.00,WUHU21623XXSP,2013-01-13 23:04:00,
2013-01-13 18:09:00,74.5,62.8,29.58,ENE,67,0.0,0.0,67,0.00,,,0.00,WUHU21623XXSP,2013-01-13 23:09:00,
2013-01-13 18:14:00,74.5,62.8,29.57,SE,135,0.0,0.0,67,0.00,,,0.00,WUHU21623XXSP,2013-01-13 23:14:00,
2013-01-13 18:19:00,74.5,62.8,29.57,ESE,112,0.0,0.0,67,0.00,,,0.00,WUHU21623XXSP,2013-01-13 23:19:00,
2013-01-13 18:24:00,74.1,62.5,29.58,East,90,0.0,0.0,67,0.00,,,0.00,WUHU21623XXSP,2013-01-13 23:24:00,
2013-01-13 18:29:00,74.1,62.5,29.58,ESE,112,0.0,0.0,67,0.00,,,0.00,WUHU21623XXSP,2013-01-13 23:29:00,
2013-01-13 18:34:00,74.1,62.5,29.58,ESE,112,0.0,0.0,67,0.00,,,0.00,WUHU21623XXSP,2013-01-13 23:34:00,
2013-01-13 18:39:00,74.1,62.5,29.58,SSE,157,0.0,0.0,67,0.00,,,0.00,WUHU21623XXSP,2013-01-13 23:39:00,
2013-01-13 18:44:00,73.9,62.3,29.58,ESE,112,0.0,0.0,67,0.00,,,0.00,WUHU21623XXSP,2013-01-13 23:44:00,
2013-01-13 18:49:00,73.9,62.3,29.58,SSE,157,0.0,0.0,67,0.00,,,0.00,WUHU21623XXSP,2013-01-13 23:49:00,
2013-01-13 18:54:00,73.8,62.6,29.57,ESE,112,0.0,0.0,68,0.00,,,0.00,WUHU21623XXSP,2013-01-13 23:54:00,
2013-01-13 18:59:00,73.8,62.6,29.57,ESE,112,0.0,0.0,68,0.00,,,0.00,WUHU21623XXSP,2013-01-13 23:59:00,
2013-01-13 19:04:00,73.8,63.0,29.57,SSE,157,0.0,0.0,69,0.00,,,0.00,WUHU21623XXSP,2013-01-14 00:04:00,
2013-01-13 19:09:00,73.6,62.9,29.57,ESE,112,0.0,0.0,69,0.00,,,0.00,WUHU21623XXSP,2013-01-14 00:09:00,
2013-01-13 19:14:00,73.6,62.9,29.57,ESE,112,0.0,0.0,69,0.00,,,0.00,WUHU21623XXSP,2013-01-14 00:14:00,
2013-01-13 19:19:00,73.6,62.4,29.57,ESE,112,0.0,0.0,68,0.00,,,0.00,WUHU21623XXSP,2013-01-14 00:19:00,
2013-01-13 19:24:00,73.6,62.9,29.58,SSE,157,0.0,0.0,69,0.00,,,0.00,WUHU21623XXSP,2013-01-14 00:24:00,
2013-01-13 19:29:00,73.6,62.9,29.58,SE,135,0.0,0.0,69,0.00,,,0.00,WUHU21623XXSP,2013-01-14 00:29:00,
2013-01-13 19:34:00,73.6,62.9,29.58,SSE,157,0.0,0.0,69,0.00,,,0.00,WUHU21623XXSP,2013-01-14 00:34:00,
2013-01-13 19:39:00,73.6,62.9,29.57,SE,135,0.0,0.0,69,0.00,,,0.00,WUHU21623XXSP,2013-01-14 00:39:00,
2013-01-13 19:44:00,73.6,62.9,29.57,SE,135,0.0,0.0,69,0.00,,,0.00,WUHU21623XXSP,2013-01-14 00:44:00,
2013-01-13 19:49:00,73.6,63.3,29.58,SE,135,0.0,0.0,70,0.00,,,0.00,WUHU21623XXSP,2013-01-14 00:49:00,
2013-01-13 19:54:00,73.6,63.3,29.57,SE,135,0.0,0.0,70,0.00,,,0.00,WUHU21623XXSP,2013-01-14 00:54:00,
2013-01-13 19:59:00,73.4,63.1,29.57,SE,135,0.0,0.0,70,0.00,,,0.00,WUHU21623XXSP,2013-01-14 00:59:00,
2013-01-13 20:04:00,73.4,63.1,29.57,SE,135,0.0,0.0,70,0.00,,,0.00,WUHU21623XXSP,2013-01-14 01:04:00,
2013-01-13 20:09:00,73.2,63.0,29.57,SE,135,0.0,0.0,70,0.00,,,0.00,WUHU21623XXSP,2013-01-14 01:09:00,
2013-01-13 20:14:00,73.2,63.0,29.57,South,180,0.0,0.0,70,0.00,,,0.00,WUHU21623XXSP,2013-01-14 01:14:00,
2013-01-13 20:19:00,73.2,63.0,29.57,SSE,157,0.0,0.0,70,0.00,,,0.00,WUHU21623XXSP,2013-01-14 01:19:00,
2013-01-13 20:24:00,73.2,63.0,29.56,ESE,112,0.0,0.0,70,0.00,,,0.00,WUHU21623XXSP,2013-01-14 01:24:00,
2013-01-13 20:29:00,73.2,63.0,29.57,SSE,157,0.0,0.0,70,0.00,,,0.00,WUHU21623XXSP,2013-01-14 01:29:00,
2013-01-13 20:34:00,73.2,63.0,29.57,SSE,157,0.0,0.0,70,0.00,,,0.00,WUHU21623XXSP,2013-01-14 01:34:00,
2013-01-13 20:39:00,73.2,63.0,29.56,SE,135,0.0,0.0,70,0.00,,,0.00,WUHU21623XXSP,2013-01-14 01:39:00,
2013-01-13 20:44:00,73.2,63.0,29.56,SE,135,0.0,0.0,70,0.00,,,0.00,WUHU21623XXSP,2013-01-14 01:44:00,
2013-01-13 20:49:00,73.2,62.5,29.56,SSE,157,0.0,0.0,69,0.00,,,0.00,WUHU21623XXSP,2013-01-14 01:49:00,
2013-01-13 20:54:00,73.0,62.3,29.56,SSE,157,0.0,0.0,69,0.00,,,0.00,WUHU21623XXSP,2013-01-14 01:54:00,
2013-01-13 20:59:00,73.0,62.3,29.56,SSE,157,0.0,0.0,69,0.00,,,0.00,WUHU21623XXSP,2013-01-14 01:59:00,
2013-01-13 21:04:00,73.0,62.3,29.55,SSE,157,0.0,0.0,69,0.00,,,0.00,WUHU21623XXSP,2013-01-14 02:04:00,
2013-01-13 21:09:00,72.9,62.2,29.55,SE,135,0.0,0.0,69,0.00,,,0.00,WUHU21623XXSP,2013-01-14 02:09:00,
2013-01-13 21:14:00,72.9,62.2,29.55,ESE,112,0.0,0.0,69,0.00,,,0.00,WUHU21623XXSP,2013-01-14 02:14:00,
2013-01-13 21:19:00,72.9,62.2,29.55,SSE,157,0.0,0.0,69,0.00,,,0.00,WUHU21623XXSP,2013-01-14 02:19:00,
2013-01-13 21:24:00,72.9,62.2,29.55,SE,135,0.0,0.0,69,0.00,,,0.00,WUHU21623XXSP,2013-01-14 02:24:00,
2013-01-13 21:29:00,72.9,62.6,29.55,SSE,157,0.0,0.0,70,0.00,,,0.00,WUHU21623XXSP,2013-01-14 02:29:00,
2013-01-13 21:34:00,73.0,62.8,29.55,East,90,0.0,0.0,70,0.00,,,0.00,WUHU21623XXSP,2013-01-14 02:34:00,
2013-01-13 21:39:00,73.2,63.0,29.55,SE,135,0.0,0.0,70,0.00,,,0.00,WUHU21623XXSP,2013-01-14 02:39:00,
2013-01-13 21:44:00,73.2,63.0,29.55,SSE,157,0.0,0.0,70,0.00,,,0.00,WUHU21623XXSP,2013-01-14 02:44:00,
2013-01-13 21:49:00,73.2,63.0,29.55,ESE,112,0.0,0.0,70,0.00,,,0.00,WUHU21623XXSP,2013-01-14 02:49:00,
2013-01-13 21:54:00,73.2,63.0,29.55,South,180,0.0,0.0,70,0.00,,,0.00,WUHU21623XXSP,2013-01-14 02:54:00,
2013-01-13 21:59:00,73.2,63.0,29.55,SE,135,0.0,0.0,70,0.00,,,0.00,WUHU21623XXSP,2013-01-14 02:59:00,
2013-01-13 22:04:00,73.4,63.1,29.55,South,180,0.0,0.0,70,0.00,,,0.00,WUHU21623XXSP,2013-01-14 03:04:00,
2013-01-13 22:09:00,73.6,63.3,29.55,SE,135,0.0,0.0,70,0.00,,,0.00,WUHU21623XXSP,2013-01-14 03:09:00,
2013-01-13 22:14:00,73.6,63.3,29.55,South,180,0.0,0.0,70,0.00,,,0.00,WUHU21623XXSP,2013-01-14 03:14:00,
2013-01-13 22:19:00,73.6,63.3,29.55,South,180,0.0,0.0,70,0.00,,,0.00,WUHU21623XXSP,2013-01-14 03:19:00,
2013-01-13 22:24:00,73.6,63.3,29.55,SSE,157,0.0,0.0,70,0.00,,,0.00,WUHU21623XXSP,2013-01-14 03:24:00,
2013-01-13 22:29:00,73.6,63.3,29.55,ESE,112,0.0,0.0,70,0.00,,,0.00,WUHU21623XXSP,2013-01-14 03:29:00,
2013-01-13 22:34:00,73.4,62.7,29.56,SSE,157,0.0,0.0,69,0.00,,,0.00,WUHU21623XXSP,2013-01-14 03:34:00,
2013-01-13 22:39:00,73.4,62.7,29.57,SSE,157,0.0,0.0,69,0.00,,,0.00,WUHU21623XXSP,2013-01-14 03:39:00,
2013-01-13 22:44:00,73.4,62.7,29.57,South,180,0.0,0.0,69,0.00,,,0.00,WUHU21623XXSP,2013-01-14 03:44:00,
2013-01-13 22:49:00,73.2,62.1,29.57,SE,135,0.0,0.0,68,0.00,,,0.00,WUHU21623XXSP,2013-01-14 03:49:00,
2013-01-13 22:54:00,73.2,62.1,29.57,SSE,157,0.0,0.0,68,0.00,,,0.00,WUHU21623XXSP,2013-01-14 03:54:00,
2013-01-13 22:59:00,73.2,62.1,29.57,SSE,157,0.0,0.0,68,0.00,,,0.00,WUHU21623XXSP,2013-01-14 03:59:00,
2013-01-13 23:04:00,73.2,61.6,29.56,South,180,0.0,0.0,67,0.00,,,0.00,WUHU21623XXSP,2013-01-14 04:04:00,
2013-01-13 23:09:00,73.0,61.4,29.56,SSE,157,0.0,0.0,67,0.00,,,0.00,WUHU21623XXSP,2013-01-14 04:09:00,
2013-01-13 23:14:00,73.0,61.4,29.56,SSE,157,0.0,0.0,67,0.00,,,0.00,WUHU21623XXSP,2013-01-14 04:14:00,
2013-01-13 23:19:00,73.0,61.9,29.56,SE,135,0.0,0.0,68,0.00,,,0.00,WUHU21623XXSP,2013-01-14 04:19:00,
2013-01-13 23:24:00,72.7,61.5,29.56,SE,135,0.0,0.0,68,0.00,,,0.00,WUHU21623XXSP,2013-01-14 04:24:00,
2013-01-13 23:29:00,72.7,61.5,29.56,ESE,112,0.0,0.0,68,0.00,,,0.00,WUHU21623XXSP,2013-01-14 04:29:00,
2013-01-13 23:34:00,72.5,61.4,29.56,SE,135,0.0,0.0,68,0.00,,,0.00,WUHU21623XXSP,2013-01-14 04:34:00,
2013-01-13 23:39:00,72.5,61.8,29.56,East,90,0.0,0.0,69,0.00,,,0.00,WUHU21623XXSP,2013-01-14 04:39:00,
2013-01-13 23:44:00,72.5,61.8,29.56,SSE,157,0.0,0.0,69,0.00,,,0.00,WUHU21623XXSP,2013-01-14 04:44:00,
2013-01-13 23:49:00,72.5,61.8,29.56,SSE,157,0.0,0.0,69,0.00,,,0.00,WUHU21623XXSP,2013-01-14 04:49:00,
2013-01-13 23:54:00,72.5,61.4,29.57,SSE,157,0.0,0.0,68,0.00,,,0.00,WUHU21623XXSP,2013-01-14 04:54:00,
2013-01-13 23:59:00,72.3,61.2,29.57,SSE,157,0.0,0.0,68,0.00,,,0.00,WUHU21623XXSP,2013-01-14 04:59:00,